Time,TemperatureF,DewpointF,PressureIn,WindDirection,WindDirectionDegrees,WindSpeedMPH,WindSpeedGustMPH,Humidity,HourlyPrecipIn,Conditions,Clouds,dailyrainin,SoftwareType,DateUTC
2013-05-22 00:03:00,69.0,68.0,29.96,East,99,0.0,0.0,96,0.00,,,1.99,,2013-05-22 04:03:00,
2013-05-22 00:13:00,69.0,68.0,29.96,East,99,0.0,0.0,96,0.00,,,1.99,,2013-05-22 04:13:00,
2013-05-22 00:23:00,69.0,68.0,29.96,East,98,0.0,0.0,96,0.00,,,1.99,,2013-05-22 04:23:00,
2013-05-22 00:33:00,69.0,68.0,29.95,East,98,0.0,0.0,97,0.00,,,1.99,,2013-05-22 04:33:00,
2013-05-22 00:43:00,69.0,68.0,29.95,East,98,0.0,0.0,97,0.00,,,1.99,,2013-05-22 04:43:00,
2013-05-22 00:53:00,69.0,68.0,29.95,East,98,0.0,0.0,97,0.00,,,1.99,,2013-05-22 04:53:00,
2013-05-22 01:02:00,69.0,68.0,29.95,East,99,0.0,0.0,96,0.00,,,1.99,,2013-05-22 05:02:00,
2013-05-22 01:12:00,69.0,68.0,29.94,East,99,0.0,0.0,97,0.00,,,1.99,,2013-05-22 05:12:00,
2013-05-22 01:21:00,69.0,68.0,29.94,East,99,0.0,0.0,97,0.00,,,1.99,,2013-05-22 05:21:00,
2013-05-22 01:32:00,68.0,67.0,29.94,East,99,0.0,0.0,96,0.00,,,1.99,,2013-05-22 05:32:00,
2013-05-22 01:42:00,68.0,67.0,29.94,East,98,0.0,0.0,97,0.00,,,1.97,,2013-05-22 05:42:00,
2013-05-22 01:52:00,68.0,67.0,29.94,East,98,0.0,0.0,97,0.00,,,1.97,,2013-05-22 05:52:00,
2013-05-22 02:01:00,68.0,67.0,29.93,East,99,0.0,0.0,97,0.00,,,1.97,,2013-05-22 06:01:00,
2013-05-22 02:12:00,68.0,67.0,29.93,East,99,0.0,0.0,97,0.00,,,1.96,,2013-05-22 06:12:00,
2013-05-22 02:21:00,68.0,67.0,29.93,East,99,0.0,0.0,97,0.00,,,1.96,,2013-05-22 06:21:00,
2013-05-22 02:32:00,68.0,67.0,29.92,East,99,0.0,0.0,97,0.00,,,1.96,,2013-05-22 06:32:00,
2013-05-22 02:42:00,67.0,66.0,29.92,East,99,0.0,0.0,97,0.00,,,1.96,,2013-05-22 06:42:00,
2013-05-22 02:52:00,67.0,66.0,29.92,East,99,0.0,0.0,97,0.00,,,1.96,,2013-05-22 06:52:00,
2013-05-22 03:01:00,67.0,66.0,29.91,East,99,0.0,0.0,97,0.00,,,1.96,,2013-05-22 07:01:00,
2013-05-22 03:11:00,67.0,66.0,29.91,East,99,0.0,0.0,97,0.00,,,1.96,,2013-05-22 07:11:00,
2013-05-22 03:21:00,67.0,66.0,29.91,East,99,0.0,0.0,97,0.00,,,1.96,,2013-05-22 07:21:00,
2013-05-22 03:32:00,67.0,66.0,29.91,East,99,0.0,0.0,97,0.00,,,1.96,,2013-05-22 07:32:00,
2013-05-22 03:42:00,67.0,66.0,29.91,East,99,0.0,0.0,97,0.00,,,1.96,,2013-05-22 07:42:00,
2013-05-22 03:53:00,67.0,66.0,29.91,East,99,0.0,0.0,97,0.00,,,1.96,,2013-05-22 07:53:00,
2013-05-22 04:02:00,67.0,66.0,29.91,East,99,0.0,0.0,97,0.00,,,1.96,,2013-05-22 08:02:00,
2013-05-22 04:11:00,67.0,66.0,29.91,East,99,0.0,0.0,97,0.00,,,1.96,,2013-05-22 08:11:00,
2013-05-22 04:22:00,66.0,65.0,29.91,East,99,0.0,0.0,97,0.00,,,1.96,,2013-05-22 08:22:00,
2013-05-22 04:32:00,66.0,65.0,29.91,East,99,0.0,0.0,97,0.00,,,1.96,,2013-05-22 08:32:00,
2013-05-22 04:42:00,66.0,65.0,29.91,East,99,0.0,0.0,97,0.00,,,1.96,,2013-05-22 08:42:00,
2013-05-22 04:52:00,66.0,65.0,29.91,East,99,0.0,0.0,97,0.00,,,1.96,,2013-05-22 08:52:00,
2013-05-22 05:01:00,66.0,65.0,29.91,East,99,0.0,0.0,98,0.00,,,1.96,,2013-05-22 09:01:00,
2013-05-22 05:12:00,66.0,65.0,29.91,East,99,0.0,0.0,98,0.00,,,1.96,,2013-05-22 09:12:00,
2013-05-22 05:22:00,66.0,65.0,29.91,East,98,0.0,0.0,98,0.00,,,1.96,,2013-05-22 09:22:00,
2013-05-22 05:33:00,66.0,65.0,29.91,East,99,0.0,0.0,98,0.00,,,1.96,,2013-05-22 09:33:00,
2013-05-22 05:42:00,66.0,65.0,29.91,East,99,0.0,0.0,98,0.00,,,1.96,,2013-05-22 09:42:00,
2013-05-22 05:53:00,66.0,65.0,29.91,East,99,0.0,0.0,98,0.00,,,1.96,,2013-05-22 09:53:00,
2013-05-22 06:00:00,66.0,65.0,29.91,East,98,0.0,0.0,98,0.00,,,1.96,,2013-05-22 10:00:00,
2013-05-22 06:03:00,66.0,65.0,29.91,East,98,0.0,0.0,98,0.00,,,1.96,,2013-05-22 10:03:00,
2013-05-22 06:12:00,66.0,65.0,29.91,East,98,0.0,0.0,98,0.00,,,1.96,,2013-05-22 10:12:00,
2013-05-22 06:23:00,66.0,65.0,29.91,East,98,0.0,0.0,98,0.00,,,1.96,,2013-05-22 10:23:00,
2013-05-22 06:33:00,66.0,65.0,29.91,East,98,0.0,0.0,98,0.00,,,1.96,,2013-05-22 10:33:00,
2013-05-22 06:42:00,66.0,65.0,29.91,East,98,0.0,0.0,98,0.00,,,1.96,,2013-05-22 10:42:00,
2013-05-22 06:53:00,66.0,65.0,29.91,East,98,0.0,0.0,98,0.00,,,1.96,,2013-05-22 10:53:00,
2013-05-22 18:13:00,77.0,72.0,29.91,ESE,105,1.0,10.0,84,0.00,,,0.19,,2013-05-22 22:13:00,
2013-05-22 18:22:00,77.0,72.0,29.91,ESE,105,1.0,10.0,84,0.00,,,0.19,,2013-05-22 22:22:00,
2013-05-22 18:33:00,78.0,72.0,29.89,ESE,123,0.0,7.0,83,0.00,,,0.19,,2013-05-22 22:33:00,
2013-05-22 18:42:00,78.0,72.0,29.90,SE,131,2.0,6.0,82,0.00,,,0.19,,2013-05-22 22:42:00,
2013-05-22 18:52:00,78.0,72.0,29.90,SE,131,2.0,6.0,82,0.00,,,0.19,,2013-05-22 22:52:00,
2013-05-22 19:02:00,77.0,72.0,29.90,ESE,118,2.0,6.0,84,0.00,,,0.19,,2013-05-22 23:02:00,
2013-05-22 19:12:00,77.0,72.0,29.91,East,84,1.0,5.0,86,0.00,,,0.19,,2013-05-22 23:12:00,
2013-05-22 19:21:00,77.0,72.0,29.91,East,84,1.0,5.0,86,0.00,,,0.19,,2013-05-22 23:21:00,
2013-05-22 19:32:00,76.0,72.0,29.91,East,93,0.0,3.0,87,0.00,,,0.19,,2013-05-22 23:32:00,
2013-05-22 19:42:00,76.0,72.0,29.91,SE,126,1.0,5.0,87,0.00,,,0.19,,2013-05-22 23:42:00,
2013-05-22 19:53:00,76.0,72.0,29.91,SE,126,1.0,5.0,87,0.00,,,0.19,,2013-05-22 23:53:00,
2013-05-22 20:01:00,76.0,72.0,29.90,ESE,110,0.0,3.0,88,0.00,,,0.19,,2013-05-23 00:01:00,
2013-05-22 20:11:00,75.0,72.0,29.90,SSE,163,0.0,0.0,89,0.00,,,0.19,,2013-05-23 00:11:00,
2013-05-22 20:22:00,75.0,72.0,29.90,SSE,163,0.0,0.0,89,0.00,,,0.19,,2013-05-23 00:22:00,
2013-05-22 20:32:00,75.0,72.0,29.91,East,101,0.0,0.0,90,0.00,,,0.19,,2013-05-23 00:32:00,
2013-05-22 20:42:00,75.0,72.0,29.91,East,101,0.0,0.0,90,0.00,,,0.19,,2013-05-23 00:42:00,
2013-05-22 20:52:00,75.0,72.0,29.91,East,101,0.0,0.0,89,0.00,,,0.19,,2013-05-23 00:52:00,
2013-05-22 21:01:00,74.0,71.0,29.91,East,101,0.0,0.0,91,0.00,,,0.19,,2013-05-23 01:01:00,
2013-05-22 21:11:00,74.0,71.0,29.91,East,101,0.0,0.0,91,0.00,,,0.19,,2013-05-23 01:11:00,
2013-05-22 21:22:00,74.0,71.0,29.91,East,101,0.0,0.0,91,0.00,,,0.19,,2013-05-23 01:22:00,
2013-05-22 21:32:00,74.0,71.0,29.93,East,101,0.0,0.0,91,0.00,,,0.19,,2013-05-23 01:32:00,
2013-05-22 21:42:00,73.0,71.0,29.93,East,101,0.0,0.0,92,0.00,,,0.19,,2013-05-23 01:42:00,
2013-05-22 21:52:00,73.0,71.0,29.93,East,101,0.0,0.0,92,0.00,,,0.19,,2013-05-23 01:52:00,
2013-05-22 22:02:00,73.0,71.0,29.93,East,100,0.0,0.0,93,0.00,,,0.19,,2013-05-23 02:02:00,
2013-05-22 22:11:00,73.0,71.0,29.93,East,100,0.0,0.0,94,0.00,,,0.19,,2013-05-23 02:11:00,
2013-05-22 22:21:00,73.0,71.0,29.93,East,100,0.0,0.0,94,0.00,,,0.19,,2013-05-23 02:21:00,
2013-05-22 22:32:00,72.0,70.0,29.93,East,100,0.0,0.0,94,0.00,,,0.19,,2013-05-23 02:32:00,
2013-05-22 22:42:00,72.0,70.0,29.93,East,100,0.0,0.0,94,0.00,,,0.19,,2013-05-23 02:42:00,
2013-05-22 22:52:00,72.0,70.0,29.93,East,100,0.0,0.0,94,0.00,,,0.19,,2013-05-23 02:52:00,
2013-05-22 23:02:00,72.0,70.0,29.93,East,100,0.0,0.0,95,0.00,,,0.19,,2013-05-23 03:02:00,
2013-05-22 23:11:00,72.0,70.0,29.94,East,100,0.0,0.0,95,0.00,,,0.19,,2013-05-23 03:11:00,
2013-05-22 23:21:00,72.0,70.0,29.94,East,100,0.0,0.0,95,0.00,,,0.19,,2013-05-23 03:21:00,
2013-05-22 23:33:00,72.0,70.0,29.93,East,100,0.0,0.0,95,0.00,,,0.19,,2013-05-23 03:33:00,
2013-05-22 23:43:00,72.0,70.0,29.93,East,100,0.0,0.0,95,0.00,,,0.19,,2013-05-23 03:43:00,
2013-05-22 23:53:00,72.0,71.0,29.94,East,100,0.0,0.0,96,0.00,,,0.19,,2013-05-23 03:53:00,